Back to catalog

DELTA 1 DEB

AlivePO
NORAD 21548·DEBRIS·🇺🇸 United States

Launched Jun 12, 1975 from Vandenberg Space Force Base

Loading…

Next Passes (next 24 hours)

TLE

FreshSource: Space-Track

Epoch: Sep 13, 2026, 03:56 UTC

1 21548U 75052HC  26256.16396037 -.00000228  00000-0 -58278-3 0  9992
2 21548  99.8045 327.4769 0246925 191.2238 196.8021 12.95783700670854

Track DELTA 1 DEB in real time with AllMySat

Download on the App Store